Location: Fort Worth, Tx
(32.7431°N, 97.3695°W)
Time: 05:09:30
(UTC-05:00)

Altair - Pass Details

Date: 12 October 2023
Orbit: 1501 x 1682 km, 47.2° (Epoch: 06 December)

Event Time Altitude Azimuth Distance (km) Brightness Sun altitude
Rises 10:07:23 0° 294° (WNW) 4,902 9.5 18.6°
Reaches altitude 10° 10:11:28 10° 281° (W) 3,928 9.1 19.4°
Maximum altitude 10:18:33 22° 235° (SW) 3,089 8.9 20.8°
Drops below altitude 10° 10:25:39 10° 190° (S) 3,927 9.9 22.1°
Sets 10:29:47 0° 176° (S) 4,900 10.6 22.9°
